Total_Precipitation_Accumulation
0.01 0.03 0.08 0.12 0.09 0.07 0.06 0.06 0.05 0.05 0.08 0.09 0.09 0.10 0.11 0.12 0.12 0.13 0.13 0.14 0.13 0.13 0.16 0.18 0.18 0.19 0.19 0.20 0.24 0.25 0.24 0.23 0.18 0.13 0.13 0.14 0.12 0.10 0.10 0.11 0.09 0.16 0.19
0.02 0.03 0.06 0.08 0.07 0.06 0.05 0.04 0.03 0.04 0.06 0.07 0.06 0.06 0.06 0.08 0.08 0.10 0.12 0.13 0.14 0.13 0.13 0.14 0.14 0.15 0.15 0.19 0.28 0.28 0.23 0.18 0.15 0.13 0.11 0.09 0.11 0.11 0.12 0.12 0.11 0.18 0.18
0.01 0.02 0.04 0.06 0.05 0.05 0.04 0.04 0.03 0.03 0.04 0.04 0.03 0.03 0.04 0.05 0.06 0.08 0.11 0.14 0.18 0.19 0.15 0.13 0.14 0.15 0.19 0.25 0.25 0.26 0.25 0.19 0.12 0.10 0.09 0.13 0.17 0.15 0.16 0.14 0.11 0.13 0.15
0.00 0.01 0.02 0.04 0.05 0.05 0.04 0.03 0.03 0.03 0.03 0.03 0.03 0.03 0.03 0.04 0.05 0.07 0.09 0.14 0.19 0.25 0.28 0.26 0.21 0.22 0.27 0.29 0.22 0.22 0.28 0.24 0.13 0.08 0.05 0.14 0.28 0.31 0.24 0.21 0.14 0.14 0.16
0.00 0.00 0.01 0.04 0.05 0.05 0.05 0.04 0.03 0.03 0.04 0.03 0.03 0.03 0.03 0.03 0.04 0.05 0.07 0.11 0.16 0.21 0.27 0.29 0.26 0.28 0.28 0.25 0.20 0.21 0.34 0.35 0.21 0.05 0.05 0.08 0.21 0.45 0.28 0.25 0.21 0.18 0.16
0.00 0.00 0.01 0.04 0.05 0.06 0.06 0.05 0.04 0.04 0.04 0.04 0.04 0.05 0.05 0.04 0.04 0.04 0.05 0.06 0.08 0.12 0.19 0.23 0.24 0.27 0.30 0.28 0.24 0.27 0.42 0.49 0.24 0.08 0.09 0.11 0.20 0.40 0.31 0.28 0.25 0.20 0.18
0.00 0.00 0.01 0.03 0.05 0.06 0.07 0.07 0.07 0.06 0.06 0.05 0.06 0.07 0.07 0.06 0.06 0.06 0.07 0.06 0.05 0.05 0.10 0.17 0.22 0.26 0.31 0.31 0.31 0.40 0.52 0.51 0.25 0.23 0.15 0.12 0.22 0.38 0.38 0.33 0.29 0.25 0.22
0.00 0.00 0.01 0.03 0.04 0.05 0.07 0.08 0.09 0.09 0.09 0.08 0.09 0.09 0.08 0.08 0.09 0.10 0.10 0.09 0.07 0.06 0.06 0.09 0.14 0.21 0.25 0.26 0.32 0.45 0.51 0.34 0.13 0.10 0.08 0.09 0.21 0.40 0.57 0.52 0.40 0.32 0.28
0.00 0.00 0.00 0.01 0.02 0.04 0.06 0.08 0.09 0.10 0.10 0.09 0.09 0.08 0.07 0.07 0.08 0.11 0.13 0.11 0.09 0.09 0.08 0.07 0.08 0.11 0.14 0.18 0.25 0.29 0.27 0.19 0.09 0.13 0.10 0.14 0.21 0.47 0.76 0.73 0.55 0.40 0.34
0.00 0.00 0.00 0.00 0.01 0.01 0.03 0.06 0.09 0.11 0.10 0.09 0.09 0.08 0.06 0.05 0.06 0.08 0.08 0.08 0.09 0.10 0.09 0.07 0.08 0.08 0.08 0.09 0.13 0.15 0.13 0.11 0.06 0.12 0.18 0.19 0.18 0.47 0.82 0.83 0.70 0.54 0.44
0.00 0.00 0.00 0.00 0.00 0.00 0.01 0.03 0.07 0.09 0.08 0.07 0.07 0.07 0.06 0.04 0.03 0.04 0.04 0.04 0.06 0.08 0.08 0.08 0.08 0.07 0.06 0.04 0.05 0.07 0.06 0.04 0.09 0.16 0.19 0.16 0.20 0.48 0.83 0.88 0.79 0.66 0.58
0.00 0.00 0.00 0.00 0.00 0.00 0.00 0.02 0.04 0.05 0.05 0.06 0.05 0.06 0.07 0.06 0.05 0.05 0.05 0.05 0.07 0.07 0.07 0.10 0.10 0.07 0.06 0.06 0.08 0.09 0.03 0.03 0.08 0.09 0.10 0.10 0.23 0.50 0.79 0.89 0.88 0.78 0.73
0.00 0.00 0.00 0.00 0.00 0.00 0.00 0.01 0.02 0.03 0.05 0.07 0.08 0.10 0.15 0.16 0.13 0.12 0.13 0.13 0.10 0.09 0.13 0.16 0.17 0.15 0.17 0.19 0.21 0.16 0.10 0.07 0.06 0.06 0.04 0.06 0.15 0.35 0.64 0.85 0.94 0.93 0.93
0.00 0.00 0.00 0.00 0.00 0.00 0.00 0.01 0.01 0.01 0.03 0.07 0.09 0.12 0.15 0.18 0.18 0.18 0.18 0.18 0.16 0.15 0.17 0.22 0.24 0.22 0.21 0.20 0.23 0.21 0.20 0.16 0.10 0.08 0.05 0.06 0.08 0.15 0.32 0.56 0.79 0.95 1.03
0.00 0.00 0.00 0.00 0.00 0.00 0.00 0.00 0.00 0.01 0.02 0.03 0.04 0.06 0.07 0.09 0.12 0.12 0.11 0.10 0.11 0.12 0.13 0.15 0.17 0.19 0.20 0.19 0.19 0.21 0.23 0.22 0.18 0.15 0.12 0.11 0.08 0.09 0.16 0.29 0.50 0.81 1.00
0.00 0.00 0.00 0.00 0.00 0.00 0.00 0.00 0.00 0.00 0.00 0.01 0.01 0.02 0.02 0.03 0.03 0.03 0.03 0.02 0.02 0.03 0.04 0.04 0.05 0.06 0.08 0.13 0.14 0.14 0.15 0.17 0.21 0.23 0.22 0.21 0.13 0.11 0.14 0.21 0.33 0.55 0.83
0.00 0.00 0.00 0.00 0.00 0.00 0.00 0.00 0.00 0.00 0.00 0.00 0.00 0.00 0.00 0.00 0.00 0.00 0.01 0.01 0.00 0.01 0.01 0.01 0.01 0.02 0.03 0.07 0.10 0.12 0.10 0.12 0.16 0.23 0.25 0.26 0.23 0.18 0.17 0.20 0.26 0.38 0.61
0.00 0.00 0.00 0.00 0.00 0.00 0.00 0.00 0.00 0.00 0.00 0.00 0.00 0.00 0.00 0.00 0.00 0.00 0.01 0.01 0.01 0.01 0.01 0.02 0.02 0.03 0.05 0.06 0.10 0.14 0.13 0.12 0.14 0.21 0.27 0.27 0.27 0.24 0.21 0.20 0.26 0.36 0.51
0.00 0.00 0.00 0.00 0.00 0.00 0.00 0.00 0.00 0.00 0.00 0.00 0.00 0.00 0.00 0.00 0.00 0.00 0.01 0.01 0.02 0.03 0.03 0.03 0.03 0.05 0.08 0.09 0.13 0.16 0.19 0.17 0.16 0.19 0.24 0.30 0.32 0.30 0.31 0.24 0.23 0.31 0.44
0.00 0.00 0.00 0.00 0.00 0.00 0.00 0.00 0.00 0.00 0.00 0.00 0.00 0.00 0.00 0.00 0.00 0.01 0.01 0.01 0.01 0.03 0.03 0.04 0.05 0.07 0.09 0.11 0.13 0.14 0.19 0.24 0.24 0.23 0.29 0.40 0.40 0.34 0.34 0.34 0.29 0.24 0.28
0.00 0.00 0.00 0.00 0.00 0.00 0.00 0.00 0.00 0.00 0.00 0.00 0.00 0.00 0.00 0.00 0.01 0.01 0.01 0.01 0.01 0.02 0.03 0.03 0.04 0.05 0.05 0.07 0.10 0.11 0.14 0.17 0.18 0.19 0.24 0.38 0.51 0.54 0.49 0.48 0.47 0.39 0.30
0.00 0.00 0.00 0.00 0.00 0.00 0.00 0.00 0.00 0.00 0.00 0.00 0.00 0.00 0.00 0.00 0.00 0.00 0.00 0.01 0.01 0.01 0.01 0.01 0.02 0.03 0.03 0.02 0.07 0.12 0.10 0.09 0.13 0.14 0.13 0.22 0.34 0.43 0.47 0.50 0.55 0.57 0.48
0.00 0.00 0.00 0.00 0.00 0.00 0.00 0.00 0.00 0.00 0.00 0.00 0.00 0.00 0.00 0.00 0.00 0.00 0.00 0.00 0.00 0.01 0.01 0.01 0.02 0.04 0.05 0.04 0.06 0.20 0.28 0.18 0.11 0.06 0.08 0.13 0.16 0.20 0.25 0.32 0.41 0.46 0.53
0.00 0.00 0.00 0.00 0.00 0.00 0.00 0.00 0.00 0.00 0.00 0.00 0.00 0.00 0.00 0.00 0.00 0.00 0.00 0.00 0.01 0.01 0.01 0.02 0.02 0.04 0.08 0.09 0.07 0.10 0.18 0.23 0.28 0.14 0.03 0.03 0.03 0.05 0.07 0.12 0.20 0.28 0.37
0.00 0.00 0.00 0.00 0.00 0.00 0.00 0.00 0.00 0.00 0.00 0.00 0.00 0.00 0.00 0.00 0.00 0.00 0.00 0.01 0.01 0.01 0.02 0.03 0.03 0.05 0.08 0.11 0.13 0.13 0.12 0.12 0.17 0.27 0.12 0.03 0.03 0.03 0.04 0.05 0.08 0.13 0.21
0.00 0.00 0.00 0.00 0.00 0.00 0.00 0.00 0.00 0.00 0.00 0.00 0.00 0.00 0.00 0.01 0.01 0.00 0.01 0.01 0.01 0.02 0.03 0.04 0.05 0.07 0.09 0.11 0.14 0.17 0.22 0.24 0.19 0.25 0.21 0.06 0.03 0.03 0.04 0.05 0.05 0.07 0.12